Content
SEND FEEDBACK

Daily
Averages
Monthly
Summary
Canada

KINGSTON, ONTARIO


Home > North America > Canada > Ontario
Elevation: 305 feet     Latitude: 44 13N     Longitude: 076 36W

WEATHER
 
SELECT A DAY
Number of Records: 127,714;   Date Range: 1/1/95 - 10/24/14
 
SHARE

PRINT THIS DATA

[ ← Previous Day ]
WEATHER ALMANAC - APRIL 7, 2014
[ Next Day → ]
[ °C ]   °F
Weather ElementAverageHighLow
Temperature41.1 °F50 °F (11:00 am)32 °F (7:00 am)
Dewpoint31.6 °F37.4 °F (8:00 pm)23 °F (7:00 am)
Humidity71.9 %93 % (8:00 pm)43 % (11:00 am)
Barometer29.93 in30.11 in (8:00 am)29.69 in (11:00 pm)
Wind Speed10.3 mph17.3 mph (10:00 pm)
Wind Gust21.9 mph (10:36 pm)
Weather ElementAverage
Visibility12.6 mi
Wind DirectionESE (99.5 °)

Weather ElementTotal
Precipitation---
Heating Degree Days24 (Base 65)
Averaged from 20 records on April 7, 2014
WEATHER CONDITIONS BREAKOUT
WIND DIRECTION BREAKOUT
WEATHER BY HOUR - APRIL 7, 2014
[ °C ]   °F
Local TimeTemperatureDewpointHumidityBarometerVisibilityWind DirectionWind SpeedGust SpeedPrecipitationEventsConditions
7:00 AM32.0 °F23.0 °F69 %30.09 in15.0 miNE (50°)6.9 mphScattered Clouds
8:00 AM35.6 °F24.8 °F65 %30.11 in15.0 miNE (50°)5.8 mphScattered Clouds
9:00 AM41.0 °F26.6 °F57 %30.10 in15.0 miENE (60°)5.8 mphMostly Cloudy
10:00 AM46.4 °F26.6 °F46 %30.07 in15.0 miESE (110°)9.2 mphMostly Cloudy
11:00 AM50.0 °F28.4 °F43 %30.05 in15.0 miESE (120°)10.4 mphOvercast
12:00 PM48.2 °F28.4 °F46 %30.04 in15.0 miSE (140°)10.4 mphOvercast
1:00 PM46.4 °F26.6 °F46 %30.01 in15.0 miSE (140°)12.7 mph19.6 mphOvercast
2:00 PM44.6 °F28.4 °F53 %30.00 in15.0 miSSE (150°)8.1 mphOvercast
3:00 PM46.4 °F26.6 °F46 %29.97 in15.0 miSE (140°)11.5 mph17.3 mphOvercast
4:00 PM41.0 °F28.4 °F61 %29.97 in15.0 miSSE (160°)10.4 mphRainLight Rain
5:00 PM37.4 °F33.8 °F87 %29.97 in9.0 miSSE (150°)9.2 mphRainLight Rain
6:00 PM37.4 °F33.8 °F87 %29.92 in15.0 miSE (130°)10.4 mphRainLight Rain
7:00 PM39.2 °F35.6 °F87 %29.88 in10.0 miEast (90°)8.1 mphRainLight Rain
8:00 PM39.2 °F37.4 °F93 %29.83 in8.0 miENE (70°)8.1 mphOvercast
8:06 PM39.2 °F37.4 °F93 %29.82 in10.0 miENE (60°)8.1 mphRainRain
8:22 PM39.2 °F37.4 °F93 %29.79 in12.0 miENE (60°)10.4 mphRainLight Rain
9:00 PM41.0 °F37.4 °F87 %29.77 in10.0 miENE (70°)13.8 mph20.7 mphRainLight Rain
10:00 PM39.2 °F37.4 °F93 %29.75 in8.0 miEast (90°)17.3 mphRainLight Rain
10:36 PM39.2 °F37.4 °F93 %29.70 in10.0 miENE (70°)15.0 mph21.9 mphRainLight Rain
11:00 PM39.2 °F37.4 °F93 %29.69 in10.0 miEast (80°)13.8 mphRainLight Rain
Hourly data recorded from CYGK, located miles away from Kingston, Ontario







STORIES FROM OUR PARTNERS